COSMOS 1275 DEB

Satellite information

Favourite Embed

Satellite Type and Status

DEBRISIN ORBIT

Key statistics

Satellite COSMOS 1275 DEB at a glance.

Uptime

16266

Days in orbit

Revolutions

≈ 13.9

Per day

Orbit

LEO

Low Earth Orbit

Inclination

82.9

Latest

Satellite identification and parameters

Extended collection of information and parameters for COSMOS 1275 DEB.

Object identification

Identified? True

Debris? True

Object name: COSMOS 1275 DEB

International designator: 1981-053TW

Object number (NORAD): 42206

Object ID (CCSDS): 42206

Country: COMMONWEALTH OF INDEPENDENT STATES (CIS)

Current information (Y/N): Y

RCS size: SMALL

Orbital parameters

Period: 103.745 minutes

Inclination: 82.9191 deg

SMA: 7313.725 km

Apoapsis: 966.125 km

Periapsis: 905.055 km

RAAN: 244.3146 deg

Eccentricy: 0.00417502

Argument of periapsis: 358.31 deg

Mean anomaly: 178.8623 deg

Mean motion: 13.88017002 rev/day

Mean motion (dot): 0.00000981 rev/day2

B* drag term: 0.00080597243 1/REarth

Two-line elements (TLE)

Creation date: Nov. 25, 2025, 3:42 a.m.

Reference frame: TEME

Reference center: EARTH

Epoch: Nov. 24, 2025, 12:11 p.m. UTC

TLE line 0: 0 COSMOS 1275 DEB

TLE line 1: 1 42206U 81053TW 25328.50772287 .00000981 00000-0 80597-3 0 9999

TLE line 2: 2 42206 82.9191 244.3146 0041750 358.3100 178.8623 13.88017002476582

Live tracking on map

Real-time ground track for satellite COSMOS 1275 DEB.

In-orbit conjunctions

A list of the most updated potential collisions computed for object COSMOS 1275 DEB.

Target Orbit TCA Probability of collision Miss distance Type
FENGYUN 1C DEB SSO 2024-10-29 12:44:14 0.0001029752 128.0 (m) DEBRIS
DELTA 1 R/B SSO 2024-08-13 11:46:03 0.0003921469 58.0 (m) ROCKET BODY

Associated space launch

Navigation satellite providing location information for the Tsiklon-B navigation system

COSMOS 1275 DEB was lifted into orbit during the mission ‘Kosmos-3M | Parus 27’, on board a Kosmos-3M space rocket.

The launch took place on June 4, 1981, 3:41 p.m. from 132/2.

For more information about the launch, click the button.

Launch to space Kosmos-3M | Parus 27
Kosmos-3M | Parus 27

Agency: N/A

Status: Launch Successful

Launch date: June 4, 1981, 3:41 p.m. UTC

Rocket: Kosmos-3M

Launch pad: 132/2

Location: Plesetsk Cosmodrome, Russian Federation

...

Latest news about this satellite

There are no fresh news available about this satellite. Check back as we update our databases every day.


Newsletter sign-up

Weekly statistics, charts and insights to help you stay on top of the space industry.